Volver al catálogo

COSMOS 1867 COOLANT

ActivoLEO
NORAD 39663·DEBRIS·🇷🇺 Russia

Lanzado Jul 10, 1987 desde Baikonur Cosmodrome

Loading…

Próximos Pases (próximas 24 horas)

TLE

ActualizadoSource: Space-Track

Época: Sep 13, 2026, 21:33 UTC

1 39663U 87060AA  26256.89846925  .00000231  00000-0  11723-3 0  9993
2 39663  65.0071 119.6435 0018373 281.5019  78.4004 14.34603031649349

Sigue COSMOS 1867 COOLANT en tiempo real con AllMySat

Download on the App Store